STARLINK-1267 (45384 NORAD) Tracking and Keplerian Element Data

This shows tracking and keplerian element data for the satellite.

Feedback or suggestion? Click here.




ElementValue
Catalog45384
NameSTARLINK-1267
Epoch Orbit1175
Epoch Day149.33334491
Epoch Year2020
RAAN267.8293
Inclination53.0001
Eccentricity0.0001338
Argument of Perigee271.1876
Mean Anonmoly292.9146
Mean Motion15.50012892
Decay Rate0.02791495
L11 45384U 20019AA 20149.33334491 .02791495 00000-0 43617-1 0 9991
L22 45384 53.0001 267.8293 0001338 271.1876 292.9146 15.50012892 11759

Live tracking and technical data element details for STARLINK-1267 (NORAD 45384). STARLINK-1267 can be tracked NOW for your location showing map with azimuth and elevation plus other details from your city location.

Track the satellite on the map from your city or location and see movement details for azimuth, elevation, latitude, longitude, range, height, and movement on the map or in text.







IsCatalogInMostPopularTable: catalog: 45384, numindb: 12
Update: records affected: 1



GetName: 45384 STARLINK-1267

Hit Count: updated at: Sat, 30 May 2020 14:24:01 GMT